• In Netherlands
  • List of Countries
  • For 7 days
  • Water Temperature
  • Satellite Maps
  • Weather Map
  • Weather Widgets
  • user-avatar
    Login

    Hourly Weather Orsha

    Today, 23 September, Saturday

    Time Temperature Precipitation Wind Pressure Humidity
    00:00 +10°C° 0 mm 6 mps 751 mmHg 70%
    01:00 +10°C° 0 mm 6 mps 751 mmHg 69%
    02:00 +10°C° 0 mm 6 mps 751 mmHg 69%
    03:00 +9°C° 0 mm 6 mps 751 mmHg 70%
    04:00 +9°C° 0 mm 5 mps 751 mmHg 70%
    05:00 +8°C° 0 mm 5 mps 751 mmHg 71%
    06:00 +9°C° 0 mm 5 mps 752 mmHg 71%
    07:00 +9°C° 0 mm 6 mps 752 mmHg 70%
    08:00 +9°C° 0 mm 6 mps 753 mmHg 69%
    09:00 +11°C° 0 mm 6 mps 753 mmHg 67%
    10:00 +13°C° 0 mm 6 mps 753 mmHg 65%
    11:00 +14°C° 0 mm 6 mps 753 mmHg 63%
    12:00 +15°C° 0 mm 6 mps 753 mmHg 62%
    13:00 +16°C° 0 mm 6 mps 753 mmHg 61%
    14:00 +17°C° 0 mm 6 mps 753 mmHg 60%
    15:00 +16°C° 0 mm 5 mps 754 mmHg 64%
    16:00 +15°C° 0 mm 4 mps 754 mmHg 67%
    17:00 +15°C° 0 mm 4 mps 754 mmHg 71%
    18:00 +14°C° 0 mm 4 mps 754 mmHg 73%
    19:00 +13°C° 0 mm 4 mps 754 mmHg 75%
    20:00 +12°C° 0 mm 4 mps 754 mmHg 76%
    21:00 +11°C° 0 mm 4 mps 755 mmHg 77%
    22:00 +11°C° 0 mm 4 mps 755 mmHg 78%
    23:00 +11°C° 0 mm 4 mps 755 mmHg 79%

    Tomorrow, 24 September, Sunday

    Time Temperature Precipitation Wind Pressure Humidity
    00:00 +10°C° 0 mm 4 mps 755 mmHg 81%
    01:00 +10°C° 0 mm 4 mps 755 mmHg 84%
    02:00 +8°C° 0 mm 4 mps 755 mmHg 86%
    03:00 +8°C° 0 mm 4 mps 755 mmHg 87%
    04:00 +7°C° 0 mm 4 mps 755 mmHg 88%
    05:00 +7°C° 0 mm 4 mps 755 mmHg 90%
    06:00 +8°C° 0 mm 5 mps 756 mmHg 86%
    07:00 +9°C° 0 mm 5 mps 756 mmHg 83%
    08:00 +9°C° 0 mm 5 mps 756 mmHg 80%
    09:00 +11°C° 0 mm 6 mps 756 mmHg 74%
    10:00 +14°C° 0 mm 6 mps 756 mmHg 67%
    11:00 +16°C° 0 mm 6 mps 756 mmHg 61%
    12:00 +16°C° 0 mm 6 mps 756 mmHg 59%
    13:00 +17°C° 0 mm 6 mps 756 mmHg 58%
    14:00 +17°C° 0 mm 6 mps 756 mmHg 57%
    15:00 +16°C° 0 mm 5 mps 756 mmHg 61%
    16:00 +17°C° 0 mm 4 mps 756 mmHg 66%
    17:00 +15°C° 0 mm 4 mps 756 mmHg 70%
    18:00 +14°C° 0 mm 4 mps 757 mmHg 73%
    19:00 +13°C° 0 mm 4 mps 757 mmHg 75%
    20:00 +12°C° 0 mm 5 mps 757 mmHg 77%
    21:00 +11°C° 0 mm 4 mps 757 mmHg 78%
    22:00 +11°C° 0 mm 4 mps 758 mmHg 80%
    23:00 +10°C° 0 mm 4 mps 758 mmHg 81%

    Day after tomorrow, 25 September, Monday

    Time Temperature Precipitation Wind Pressure Humidity
    00:00 +10°C° 0 mm 4 mps 758 mmHg 82%
    01:00 +8°C° 0 mm 4 mps 758 mmHg 84%
    02:00 +8°C° 0 mm 4 mps 758 mmHg 86%
    03:00 +7°C° 0 mm 4 mps 758 mmHg 87%
    04:00 +7°C° 0 mm 4 mps 758 mmHg 88%
    05:00 +7°C° 0 mm 4 mps 758 mmHg 89%
    06:00 +7°C° 0 mm 4 mps 759 mmHg 86%
    07:00 +8°C° 0 mm 5 mps 759 mmHg 83%
    08:00 +9°C° 0 mm 5 mps 759 mmHg 80%
    09:00 +12°C° 0 mm 5 mps 759 mmHg 75%
    10:00 +13°C° 0 mm 5 mps 759 mmHg 69%
    11:00 +15°C° 0 mm 5 mps 759 mmHg 63%
    12:00 +16°C° 0 mm 5 mps 759 mmHg 61%
    13:00 +17°C° 0 mm 5 mps 759 mmHg 59%
    14:00 +17°C° 0 mm 5 mps 759 mmHg 58%
    15:00 +17°C° 0 mm 4 mps 759 mmHg 62%
    16:00 +17°C° 0 mm 4 mps 759 mmHg 67%
    17:00 +16°C° 0 mm 3 mps 759 mmHg 71%
    18:00 +13°C° 0 mm 3 mps 759 mmHg 75%
    19:00 +12°C° 0 mm 3 mps 759 mmHg 78%
    20:00 +11°C° 0 mm 3 mps 760 mmHg 81%
    21:00 +11°C° 0 mm 3 mps 760 mmHg 83%
    22:00 +10°C° 0 mm 3 mps 760 mmHg 85%
    23:00 +9°C° 0 mm 3 mps 760 mmHg 86%

    26 September, Tuesday

    Time Temperature Precipitation Wind Pressure Humidity
    00:00 +9°C° 0 mm 3 mps 760 mmHg 88%
    01:00 +8°C° 0 mm 3 mps 760 mmHg 89%
    02:00 +8°C° 0 mm 3 mps 760 mmHg 90%
    03:00 +8°C° 0 mm 3 mps 760 mmHg 91%
    04:00 +7°C° 0 mm 3 mps 760 mmHg 91%
    05:00 +7°C° 0 mm 3 mps 760 mmHg 91%
    06:00 +8°C° 0 mm 3 mps 760 mmHg 87%
    07:00 +9°C° 0 mm 3 mps 761 mmHg 83%
    08:00 +9°C° 0 mm 3 mps 761 mmHg 78%
    09:00 +11°C° 0 mm 3 mps 761 mmHg 72%
    10:00 +13°C° 0 mm 3 mps 761 mmHg 66%
    11:00 +14°C° 0 mm 3 mps 761 mmHg 60%
    12:00 +16°C° 0 mm 3 mps 760 mmHg 58%
    13:00 +17°C° 0 mm 3 mps 760 mmHg 57%
    14:00 +17°C° 0 mm 3 mps 760 mmHg 55%
    15:00 +17°C° 0 mm 3 mps 760 mmHg 61%
    16:00 +16°C° 0 mm 3 mps 760 mmHg 66%
    17:00 +15°C° 0 mm 2 mps 759 mmHg 71%
    18:00 +13°C° 0 mm 3 mps 760 mmHg 76%
    19:00 +12°C° 0 mm 3 mps 760 mmHg 81%
    20:00 +10°C° 0 mm 3 mps 760 mmHg 85%
    21:00 +10°C° 0 mm 3 mps 760 mmHg 88%
    22:00 +10°C° 0 mm 3 mps 760 mmHg 90%
    23:00 +9°C° 0 mm 3 mps 760 mmHg 93%

    27 September, Wednesday

    Time Temperature Precipitation Wind Pressure Humidity
    00:00 +9°C° 0 mm 3 mps 760 mmHg 93%
    01:00 +8°C° 0 mm 3 mps 761 mmHg 94%
    02:00 +8°C° 0 mm 3 mps 761 mmHg 95%
    03:00 +8°C° 0 mm 3 mps 761 mmHg 95%
    04:00 +7°C° 0 mm 3 mps 761 mmHg 95%
    05:00 +7°C° 0 mm 3 mps 761 mmHg 95%
    06:00 +7°C° 0 mm 3 mps 761 mmHg 91%
    07:00 +8°C° 0 mm 3 mps 761 mmHg 88%
    08:00 +9°C° 0 mm 3 mps 762 mmHg 84%
    09:00 +11°C° 0 mm 3 mps 762 mmHg 77%
    10:00 +12°C° 0 mm 3 mps 762 mmHg 70%
    11:00 +14°C° 0 mm 3 mps 762 mmHg 63%
    12:00 +14°C° 0 mm 3 mps 762 mmHg 61%
    13:00 +16°C° 0 mm 3 mps 762 mmHg 59%
    14:00 +17°C° 0 mm 3 mps 761 mmHg 56%
    15:00 +16°C° 0 mm 3 mps 761 mmHg 61%
    16:00 +15°C° 0 mm 2 mps 761 mmHg 65%
    17:00 +14°C° 0 mm 2 mps 761 mmHg 70%
    18:00 +13°C° 0 mm 2 mps 761 mmHg 73%
    19:00 +12°C° 0 mm 2 mps 761 mmHg 76%
    20:00 +9°C° 0 mm 2 mps 761 mmHg 80%
    21:00 +9°C° 0 mm 2 mps 761 mmHg 81%
    22:00 +8°C° 0 mm 2 mps 762 mmHg 82%
    23:00 +8°C° 0 mm 2 mps 762 mmHg 84%

    28 September, Thursday

    Time Temperature Precipitation Wind Pressure Humidity
    00:00 +9°C° 0 mm 1 mps 762 mmHg 84%
    01:00 +8°C° 0 mm 1 mps 762 mmHg 85%
    02:00 +8°C° 0 mm 1 mps 762 mmHg 86%
    03:00 +7°C° 0 mm 1 mps 762 mmHg 85%
    04:00 +7°C° 0 mm 1 mps 762 mmHg 85%
    05:00 +7°C° 0 mm 1 mps 762 mmHg 85%
    06:00 +8°C° 0 mm 1 mps 762 mmHg 81%
    07:00 +9°C° 0 mm 1 mps 762 mmHg 77%
    08:00 +10°C° 0 mm 1 mps 762 mmHg 73%
    09:00 +11°C° 0 mm 1 mps 762 mmHg 68%
    10:00 +12°C° 0 mm 1 mps 762 mmHg 63%
    11:00 +14°C° 0 mm 1 mps 762 mmHg 58%
    12:00 +14°C° 0 mm 1 mps 762 mmHg 57%
    13:00 +15°C° 0 mm 1 mps 761 mmHg 55%
    14:00 +15°C° 0 mm 1 mps 761 mmHg 54%
    15:00 +15°C° 0 mm 1 mps 761 mmHg 58%
    16:00 +14°C° 0 mm 1 mps 761 mmHg 63%
    17:00 +13°C° 0 mm 1 mps 760 mmHg 67%
    18:00 +12°C° 0 mm 1 mps 760 mmHg 69%
    19:00 +11°C° 0 mm 1 mps 760 mmHg 72%
    20:00 +10°C° 0 mm 1 mps 761 mmHg 74%
    21:00 +9°C° 0 mm 1 mps 761 mmHg 74%
    22:00 +9°C° 0 mm 1 mps 761 mmHg 75%
    23:00 +9°C° 0 mm 1 mps 761 mmHg 75%
    Show more